• Em Portugal
  • Lista de países
  • Para 7 dias
  • Temperatura da água
  • Mapas de satélite
  • Mapa do tempo
  • Widgets de tempo
  • user-avatar
    Iniciar Sessão

    Previsão horária em Gwatemala

    Hoje, 23 Agosto, Quarta-feira

    Tempo Temperatura Precipitação Vento Pressão Humidade
    00:00 +18°C° 0,9 mm 1 m/s 637 mmHg 94%
    01:00 +18°C° 0,5 mm 1 m/s 637 mmHg 94%
    02:00 +18°C° 0,5 mm 1 m/s 637 mmHg 94%
    03:00 +16°C° 0,5 mm 1 m/s 636 mmHg 94%
    04:00 +16°C° 0,1 mm 1 m/s 636 mmHg 93%
    05:00 +16°C° 0,1 mm 1 m/s 636 mmHg 92%
    06:00 +16°C° 0,1 mm 1 m/s 636 mmHg 92%
    07:00 +20°C° 0 mm 1 m/s 637 mmHg 82%
    08:00 +20°C° 0 mm 0 m/s 638 mmHg 73%
    09:00 +23°C° 0 mm 0 m/s 639 mmHg 64%
    10:00 +26°C° 0,6 mm 1 m/s 639 mmHg 64%
    11:00 +26°C° 0,6 mm 1 m/s 639 mmHg 64%
    12:00 +27°C° 0,6 mm 2 m/s 639 mmHg 63%
    13:00 +26°C° 1,3 mm 2 m/s 638 mmHg 66%
    14:00 +26°C° 1,3 mm 2 m/s 638 mmHg 68%
    15:00 +26°C° 1,3 mm 2 m/s 637 mmHg 70%
    16:00 +24°C° 1,3 mm 1 m/s 636 mmHg 75%
    17:00 +23°C° 1,3 mm 1 m/s 636 mmHg 80%
    18:00 +21°C° 1,3 mm 1 m/s 636 mmHg 85%
    19:00 +19°C° 1,1 mm 0 m/s 636 mmHg 87%
    20:00 +18°C° 1,1 mm 0 m/s 636 mmHg 88%
    21:00 +17°C° 1,1 mm 0 m/s 637 mmHg 89%
    22:00 +19°C° 1 mm 1 m/s 636 mmHg 90%
    23:00 +19°C° 1 mm 1 m/s 636 mmHg 90%

    Amanhã, 24 Agosto, Quinta-feira

    Tempo Temperatura Precipitação Vento Pressão Humidade
    00:00 +19°C° 1 mm 1 m/s 636 mmHg 91%
    01:00 +19°C° 0,6 mm 1 m/s 636 mmHg 91%
    02:00 +18°C° 0,6 mm 1 m/s 635 mmHg 91%
    03:00 +18°C° 0,6 mm 1 m/s 635 mmHg 92%
    04:00 +18°C° 0,1 mm 1 m/s 635 mmHg 92%
    05:00 +18°C° 0,1 mm 1 m/s 635 mmHg 92%
    06:00 +18°C° 0,1 mm 1 m/s 635 mmHg 92%
    07:00 +18°C° 0 mm 0 m/s 636 mmHg 84%
    08:00 +20°C° 0 mm 0 m/s 637 mmHg 76%
    09:00 +22°C° 0 mm 0 m/s 638 mmHg 69%
    10:00 +25°C° 0,6 mm 1 m/s 638 mmHg 67%
    11:00 +26°C° 0,6 mm 1 m/s 638 mmHg 65%
    12:00 +27°C° 0,6 mm 1 m/s 638 mmHg 63%
    13:00 +27°C° 1,4 mm 2 m/s 637 mmHg 66%
    14:00 +26°C° 1,4 mm 2 m/s 636 mmHg 68%
    15:00 +26°C° 1,4 mm 2 m/s 636 mmHg 71%
    16:00 +24°C° 1,7 mm 1 m/s 635 mmHg 76%
    17:00 +23°C° 1,7 mm 1 m/s 635 mmHg 81%
    18:00 +22°C° 1,7 mm 1 m/s 635 mmHg 85%
    19:00 +21°C° 2,5 mm 1 m/s 635 mmHg 88%
    20:00 +18°C° 2,5 mm 0 m/s 636 mmHg 90%
    21:00 +17°C° 2,5 mm 0 m/s 636 mmHg 92%
    22:00 +17°C° 2,3 mm 0 m/s 636 mmHg 93%
    23:00 +17°C° 2,3 mm 0 m/s 636 mmHg 93%

    Depois de amanhã, 25 Agosto, Sexta-feira

    Tempo Temperatura Precipitação Vento Pressão Humidade
    00:00 +17°C° 2,3 mm 0 m/s 636 mmHg 93%
    01:00 +17°C° 1,5 mm 0 m/s 636 mmHg 93%
    02:00 +16°C° 1,5 mm 0 m/s 635 mmHg 93%
    03:00 +16°C° 1,5 mm 0 m/s 635 mmHg 93%
    04:00 +16°C° 0,9 mm 0 m/s 635 mmHg 93%
    05:00 +16°C° 0,9 mm 0 m/s 635 mmHg 93%
    06:00 +16°C° 0,9 mm 0 m/s 636 mmHg 93%
    07:00 +17°C° 0,6 mm 0 m/s 636 mmHg 90%
    08:00 +19°C° 0,6 mm 0 m/s 637 mmHg 86%
    09:00 +20°C° 0,6 mm 0 m/s 638 mmHg 82%
    10:00 +21°C° 0,6 mm 0 m/s 638 mmHg 79%
    11:00 +24°C° 0,6 mm 1 m/s 638 mmHg 75%
    12:00 +25°C° 0,6 mm 1 m/s 638 mmHg 72%
    13:00 +25°C° 0,6 mm 1 m/s 638 mmHg 73%
    14:00 +24°C° 0,6 mm 2 m/s 637 mmHg 74%
    15:00 +24°C° 0,6 mm 2 m/s 636 mmHg 76%
    16:00 +23°C° 1,3 mm 2 m/s 636 mmHg 81%
    17:00 +22°C° 1,3 mm 1 m/s 636 mmHg 86%
    18:00 +20°C° 1,3 mm 1 m/s 636 mmHg 91%
    19:00 +20°C° 2 mm 1 m/s 636 mmHg 92%
    20:00 +19°C° 2 mm 1 m/s 637 mmHg 93%
    21:00 +19°C° 2 mm 1 m/s 637 mmHg 94%
    22:00 +19°C° 0,7 mm 1 m/s 637 mmHg 94%
    23:00 +17°C° 0,7 mm 0 m/s 637 mmHg 94%

    26 Agosto, Sábado

    Tempo Temperatura Precipitação Vento Pressão Humidade
    00:00 +16°C° 0,7 mm 0 m/s 637 mmHg 94%
    01:00 +16°C° 0,7 mm 0 m/s 637 mmHg 94%
    02:00 +16°C° 0,7 mm 0 m/s 636 mmHg 94%
    03:00 +16°C° 0,7 mm 0 m/s 636 mmHg 94%
    04:00 +16°C° 0,3 mm 0 m/s 636 mmHg 94%
    05:00 +16°C° 0,3 mm 0 m/s 636 mmHg 94%
    06:00 +16°C° 0,3 mm 1 m/s 636 mmHg 94%
    07:00 +19°C° 0,1 mm 1 m/s 637 mmHg 87%
    08:00 +21°C° 0,1 mm 1 m/s 638 mmHg 80%
    09:00 +23°C° 0,1 mm 1 m/s 639 mmHg 73%
    10:00 +24°C° 0,4 mm 1 m/s 639 mmHg 71%
    11:00 +24°C° 0,4 mm 1 m/s 639 mmHg 70%
    12:00 +25°C° 0,4 mm 2 m/s 638 mmHg 68%
    13:00 +24°C° 0,7 mm 2 m/s 638 mmHg 71%
    14:00 +24°C° 0,7 mm 2 m/s 637 mmHg 73%
    15:00 +24°C° 0,7 mm 2 m/s 636 mmHg 76%
    16:00 +23°C° 0,8 mm 2 m/s 636 mmHg 80%
    17:00 +21°C° 0,8 mm 1 m/s 636 mmHg 85%
    18:00 +20°C° 0,8 mm 1 m/s 636 mmHg 89%
    19:00 +20°C° 0,6 mm 1 m/s 636 mmHg 91%
    20:00 +19°C° 0,6 mm 1 m/s 637 mmHg 92%
    21:00 +19°C° 0,6 mm 1 m/s 637 mmHg 93%
    22:00 +18°C° 0,2 mm 1 m/s 637 mmHg 94%
    23:00 +18°C° 0,2 mm 1 m/s 637 mmHg 94%

    27 Agosto, Domingo

    Tempo Temperatura Precipitação Vento Pressão Humidade
    00:00 +16°C° 0,2 mm 0 m/s 636 mmHg 94%
    01:00 +16°C° 0 mm 0 m/s 636 mmHg 94%
    02:00 +16°C° 0 mm 0 m/s 636 mmHg 94%
    03:00 +15°C° 0 mm 0 m/s 636 mmHg 94%
    04:00 +15°C° 0 mm 0 m/s 636 mmHg 93%
    05:00 +15°C° 0 mm 0 m/s 636 mmHg 93%
    06:00 +15°C° 0 mm 0 m/s 636 mmHg 93%
    07:00 +19°C° 0 mm 1 m/s 637 mmHg 84%
    08:00 +21°C° 0 mm 1 m/s 638 mmHg 76%
    09:00 +23°C° 0 mm 1 m/s 639 mmHg 68%
    10:00 +24°C° 0,2 mm 1 m/s 639 mmHg 66%
    11:00 +25°C° 0,2 mm 2 m/s 638 mmHg 64%
    12:00 +26°C° 0,2 mm 2 m/s 638 mmHg 61%
    13:00 +26°C° 0,7 mm 2 m/s 638 mmHg 65%
    14:00 +25°C° 0,7 mm 2 m/s 637 mmHg 68%
    15:00 +25°C° 0,7 mm 2 m/s 636 mmHg 71%
    16:00 +24°C° 0,8 mm 2 m/s 636 mmHg 76%
    17:00 +22°C° 0,8 mm 1 m/s 636 mmHg 80%
    18:00 +21°C° 0,8 mm 1 m/s 636 mmHg 84%
    19:00 +20°C° 0,6 mm 1 m/s 636 mmHg 87%
    20:00 +19°C° 0,6 mm 1 m/s 636 mmHg 90%
    21:00 +16°C° 0,6 mm 0 m/s 636 mmHg 93%
    22:00 +16°C° 0,1 mm 0 m/s 636 mmHg 94%
    23:00 +18°C° 0,1 mm 1 m/s 636 mmHg 94%

    28 Agosto, Segunda-feira

    Tempo Temperatura Precipitação Vento Pressão Humidade
    00:00 +16°C° 0,1 mm 1 m/s 636 mmHg 95%
    01:00 +16°C° 0 mm 1 m/s 636 mmHg 95%
    02:00 +16°C° 0 mm 1 m/s 635 mmHg 95%
    03:00 +16°C° 0 mm 1 m/s 635 mmHg 94%
    04:00 +15°C° 0 mm 1 m/s 635 mmHg 93%
    05:00 +15°C° 0 mm 1 m/s 635 mmHg 93%
    06:00 +15°C° 0 mm 1 m/s 635 mmHg 92%
    07:00 +19°C° 0 mm 1 m/s 636 mmHg 81%
    08:00 +22°C° 0 mm 1 m/s 637 mmHg 70%
    09:00 +25°C° 0 mm 1 m/s 638 mmHg 59%
    10:00 +26°C° 0 mm 1 m/s 638 mmHg 55%
    11:00 +27°C° 0 mm 2 m/s 638 mmHg 51%
    12:00 +28°C° 0 mm 2 m/s 638 mmHg 47%
    13:00 +27°C° 0,4 mm 2 m/s 638 mmHg 52%
    14:00 +27°C° 0,4 mm 2 m/s 637 mmHg 57%
    15:00 +26°C° 0,4 mm 2 m/s 636 mmHg 62%
    16:00 +25°C° 0,4 mm 2 m/s 636 mmHg 68%
    17:00 +23°C° 0,4 mm 2 m/s 636 mmHg 74%
    18:00 +22°C° 0,4 mm 1 m/s 636 mmHg 80%
    19:00 +21°C° 0,4 mm 1 m/s 636 mmHg 84%
    20:00 +20°C° 0,4 mm 1 m/s 636 mmHg 88%
    21:00 +19°C° 0,4 mm 1 m/s 637 mmHg 92%
    22:00 +18°C° 0,2 mm 1 m/s 636 mmHg 93%
    23:00 +18°C° 0,2 mm 1 m/s 636 mmHg 93%
    Mostrar mais